OpenBCM V1.13 (Linux)

Packet Radio Mailbox

DB0FHN

[JN59NK Nuernberg]

 Login: GUEST





  
CX2SA  > KEPS     24.09.04 04:25l 95 Lines 2475 Bytes #999 (0) @ AMSAT
BID : ORB04267.M
Read: GUEST
Subj: Orbital Elements  04267.MISC
Path: DB0FHN<DB0THA<DB0ERF<DB0FBB<DB0ACC<DB0EA<DB0RES<ON0BEL<7M3TJZ<EA5AKC<
      CX2SA
Sent: 040924/0219Z @:CX2SA.LAV.URY.SA #:18031 [Minas] FBB7.00e $:ORB04267.M
From: CX2SA@CX2SA.LAV.URY.SA
To  : KEPS@AMSAT


HR AMSAT ORBITAL ELEMENTS FOR MANNED AND MISCELLANEOUS SATELLITES
FROM WA5QGD FORT WORTH,TX September 23, 2004
SEND SUBSCRIBE/UNSUBSCRIBE TO majordomo@amsat.org ONLY
BID: ORB04267.M
TO ALL RADIO AMATEURS BT

Satellite: HUBBLE
Catalog number: 20580
Epoch time:      04267.23692608
Element set:     161
Inclination:       28.4666 deg
RA of node:       207.6793 deg
Eccentricity:    0.0003901
Arg of perigee:   326.7005 deg
Mean anomaly:      33.3761 deg
Mean motion:   14.99316304 rev/day
Decay rate:       5.04e-06 rev/day^2
Epoch rev:           59013
Checksum:              279

Satellite: UARS
Catalog number: 21701
Epoch time:      04267.15106163
Element set:     272
Inclination:       56.9791 deg
RA of node:       192.3806 deg
Eccentricity:    0.0005199
Arg of perigee:   116.4547 deg
Mean anomaly:     243.7084 deg
Mean motion:   15.03622692 rev/day
Decay rate:       1.11e-06 rev/day^2
Epoch rev:           71332
Checksum:              274

Satellite: PO-34
Catalog number: 25520
Epoch time:      04266.31840233
Element set:      16
Inclination:       28.4602 deg
RA of node:       302.5172 deg
Eccentricity:    0.0006029
Arg of perigee:   191.7481 deg
Mean anomaly:     168.2975 deg
Mean motion:   15.15747795 rev/day
Decay rate:      1.238e-05 rev/day^2
Epoch rev:           32589
Checksum:              299

Satellite: ISS
Catalog number: 25544
Epoch time:      04267.95243383
Element set:     754
Inclination:       51.6342 deg
RA of node:       181.6280 deg
Eccentricity:    0.0009964
Arg of perigee:   144.8985 deg
Mean anomaly:     322.5176 deg
Mean motion:   15.68386928 rev/day
Decay rate:    1.20810e-03 rev/day^2
Epoch rev:           33383
Checksum:              326

Satellite: OO-38
Catalog number: 26063
Epoch time:      04267.14295929
Element set:     167
Inclination:      100.2262 deg
RA of node:        72.0262 deg
Eccentricity:    0.0037331
Arg of perigee:    86.7238 deg
Mean anomaly:     273.8197 deg
Mean motion:   14.35668603 rev/day
Decay rate:       -1.5e-07 rev/day^2
Epoch rev:           24397
Checksum:              307

Satellite: NO-45
Catalog number: 26932
Epoch time:      04267.92342482
Element set:     853
Inclination:       67.0576 deg
RA of node:       193.1764 deg
Eccentricity:    0.0005322
Arg of perigee:   286.4149 deg
Mean anomaly:      73.6555 deg
Mean motion:   14.29442384 rev/day
Decay rate:      -1.50e-06 rev/day^2
Epoch rev:           15574
Checksum:              319



Read previous mail | Read next mail


 13.06.2026 07:48:02lGo back Go up